Current weather by "City, St" or "zip code"  
 

Current Conditions: Port Aransas, Mustang Beach Airport, TX

Mostly Cloudy


80.0 F

Last Updated on Oct 23 2020, 9:55 pm CDT
Humidity: 85%
Wind Speed: NE 8.1 mph
Barometer 30.02 in
Dewpoint: 75.2 F
Visibility: 10.00 mi
Precip: --
Heat Index: 85 F
Wind Chill: NA
Current conditions at:

Port Aransas, Mustang Beach Airport, TX (KRAS)

Lat: 27.81167 Lon: 97.08861

Local Radar Image active severe weather and emergency alerts image image weather storm and storm spotter reports image weather observation monitoring service image
Local
Radar
Active
Alerts
Storm Reports Obs
Monitoring

Sign-up For Email & Text Message Weather Alert Notification Services



Advertise Here

Observation History for Port Aransas, Mustang Beach Airport, TX


Time Wind
(mph)
Vis
(mi)
Weather Precip (in) Temperature (F) Relative
Humidity
Wind
Chill
(F)
Heat
Index
(F)
Pressure
Air Dwpt altimeter
(in)
sea level
(mb)
Rmks
9:55 pm CDT NE 8.1 10.00 Mostly Cloudy -- 80.0 75.2 85% NA 85 30.02 M
8:55 pm CDT NE 4.6 10.00 Fair -- 80.0 75.2 87% NA 85 29.99 M
7:55 pm CDT E 3.5 10.00 Fair -- 81.0 75.6 85% NA 87 29.97 M
6:55 pm CDT E 9.2 10.00 Fair -- 81.0 75.7 84% NA 87 29.94 M
5:55 pm CDT SE 8.1 10.00 Fair -- 82.0 75.4 80% NA 89 29.93 M
4:55 pm CDT E 9.2 10.00 Fair -- 83.0 74.5 75% NA 90 29.92 M
3:55 pm CDT E 9.2 10.00 Fair -- 84.0 75.7 75% NA 92 29.92 M
2:55 pm CDT E 11.5 10.00 Fair -- 84.0 74.8 74% NA 92 29.94 M
1:55 pm CDT E 9.2 10.00 Fair -- 84.0 75.4 76% NA 93 29.95 M
12:55 pm CDT E 9.2 10.00 Fair -- 84.0 75.6 76% NA 92 29.96 M
11:55 am CDT E 5.8 10.00 Partly Cloudy -- 83.0 75.7 79% NA 91 29.99 M
10:55 am CDT E 5.8 10.00 Partly Cloudy -- 82.0 75.7 82% NA 89 29.97 M
9:55 am CDT SE 6.9 10.00 Mostly Cloudy -- 81.0 76.1 86% NA 88 29.95 M
8:55 am CDT SE 4.6 10.00 Overcast -- 80.0 75.9 87% NA 85 29.93 M
7:55 am CDT SE 4.6 10.00 Partly Cloudy -- 78.0 75.2 91% NA NA 29.91 M
6:55 am CDT SE 6.9 10.00 Partly Cloudy -- 78.0 75.2 90% NA NA 29.90 M
5:55 am CDT SE 6.9 10.00 Partly Cloudy -- 78.0 75.0 90% NA NA 29.89 M
4:55 am CDT SE 5.8 10.00 Mostly Cloudy -- 79.0 75.2 89% NA NA 29.89 M
3:55 am CDT SE 6.9 10.00 Partly Cloudy -- 79.0 75.2 89% NA NA 29.90 M
2:55 am CDT SE 8.1 10.00 Mostly Cloudy -- 79.0 75.2 89% NA NA 29.91 M
1:55 am CDT SE 8.1 10.00 Partly Cloudy -- 79.0 75.4 89% NA NA 29.91 M
12:55 am CDT SE 8.1 10.00 Fair -- 79.0 75.2 87% NA NA 29.91 M
11:55 pm CDT E 9.2 10.00 Fair -- 79.0 75.4 88% NA NA 29.91 M
10:55 pm CDT E 9.2 10.00 Fair -- 80.0 75.6 88% NA 85 29.92 M

Regional Weather Observation


Mc Campbell, TX (KTFP)

Mostly Cloudy and Breezy
79.0 F

Port Aransas, Mustang Beach Airport, TX (KRAS)

Mostly Cloudy
80.0 F

Corpus Christi, Corpus Christi International Airport, TX (KCRP)

Mostly Cloudy
77.0 F

Corpus Christi, Corpus Christi Naval Air Station/Truax Field, TX (KNGP)

Fair
81.0 F

Robstown, Nueces County Airport, TX (KRBO)

Partly Cloudy
79.0 F

Beeville Municipal Airport, TX (KBEA)

Fair
58.0 F